Regional Weather Roundup
Issued by NWS

Home | Current Version | Previous Version | Graphics & Text | Print | Product List | Glossary On
Versions: 1 2 3 4 5 6 7 8 9 10 11 12 13 14 15 16 17 18 19 20 21 22 23 24 25 26 27 28 29 30 31 32 33 34 35 36 37 38 39 40 41 42 43 44 45 46 47 48 49 50
000
ASUS43 KLSX 202057
RWRMO

WEATHER SUMMARY FOR MISSOURI
NATIONAL WEATHER SERVICE SPRINGFIELD MO
400 PM CDT WED SEP 20 2017

NOTE: "FAIR" INDICATES FEW OR NO CLOUDS BELOW 12,000 FEET WITH NO
       SIGNIFICANT WEATHER AND/OR OBSTRUCTIONS TO VISIBILITY.
       CURRENT SKY AND/OR WEATHER CONDITIONS ARE NOT AVAILABLE FOR
       CHILLICOTHE AND FARMINGTON.

MOZ001>031-035>038-043-044-053-054-202200-
...NORTHERN AND WESTERN MISSOURI...

CITY           SKY/WX    TMP DP  RH WIND       PRES   REMARKS
KANSAS CTY INT PTSUNNY   85  72  65 SW14      29.81S HX  91
LEE`S SUMMIT   CLOUDY    87  74  64 SW13      29.81S HX  95
ST JOSEPH      MOSUNNY   88  71  57 S12       29.79S HX  94
CHILLICOTHE      N/A     88  74  63 VRB7      29.81S HX  96

$$
MOZ066>068-077>081-088>096-101>105-202200-
...SOUTHWEST MISSOURI...

CITY           SKY/WX    TMP DP  RH WIND       PRES   REMARKS
SPRINGFIELD    SUNNY     93  70  46 SW12      29.86F HX  99
JOPLIN         SUNNY     91  73  55 S20G25    29.83S HX  99
BRANSON        MOSUNNY   91  66  43 S7        29.91F HX  94

$$
MOZ032>034-039>042-045>050-055>058-069>072-202200-
...CENTRAL MISSOURI...

CITY           SKY/WX    TMP DP  RH WIND       PRES   REMARKS
COLUMBIA       NOT AVBL
JEFFERSON CITY SUNNY    N/A N/A N/A SE9       29.83F
ROLLA          MOSUNNY   93  69  45 S10       29.90F HX  98
SEDALIA        SUNNY     93  75  55 S16       29.83S HX 104
WARRENSBURG    MOSUNNY   90  72  55 S9        29.81S HX  96

$$
MOZ051-052-059>065-202200-
...EAST CENTRAL MISSOURI...

CITY           SKY/WX    TMP DP  RH WIND       PRES   REMARKS
ST LOUIS INTL  MOSUNNY   97  68  38 S9        29.87F HX 102

$$
MOZ072>076-082>087-097>100-106>115-202200-
...SOUTH CENTRAL AND SOUTHEAST MISSOURI...

CITY           SKY/WX    TMP DP  RH WIND       PRES   REMARKS
CAPE GIRARDEAU MOSUNNY   92  70  48 S14       29.91F HX  97
POPLAR BLUFF   SUNNY     92  71  50 S10       29.90F HX  98
WEST PLAINS    PTSUNNY   89  68  49 S8        29.93F HX  93

$$



USA.gov is the U.S. government's official web portal to all federal, state and local government web resources and services.